Volver al catálogo

STARLINK-34459

ActivoComunicacionesVLEO
NORAD 64449·PAYLOAD·🇺🇸 United States

Lanzado Jun 18, 2025 desde Cape Canaveral Space Force Station

Loading…

Próximos Pases (próximas 24 horas)

TLE

ActualizadoSource: CelesTrak SupGP

Época: Sep 15, 2026, 03:41 UTC

1 64449C 25130M   26258.15395833 -.00012573  00000+0 -37137-3 0  2589
2 64449  53.1570 284.9252 0001342  85.5167 188.4213 15.34404439    19

Sigue STARLINK-34459 en tiempo real con AllMySat

Download on the App Store